User: anonymous   Login
Location: Melbourne
(37.8170°S, 144.9670°E)
Time: 08:15:52
(UTC+11:00)
Language:

Aureole 2 Rocket - Orbit

View from above orbital plane
View from above orbital plane
View from above satellite
View from above satellite

Ground track
Ground track

The orbit data is extracted from the following two-line orbital elements,

1 07004U 73107B   17016.58399347  .00009342  00000-0  14902-3 0  9999
2 07004  73.9361  31.7074 0190337 300.0340  58.2099 15.35360141213904
Epoch (UTC): 16 January 2017 14:00:57
Eccentricity: 0.0190337
inclination: 73.9361°
perigee height: 330 km
apogee height: 590 km
right ascension of ascending node: 31.7074°
argument of perigee: 300.0340°
revolutions per day: 15.35360141
mean anomaly at epoch: 58.2099°
orbit number at epoch: 21390

The dashed part of the orbit path shows where the satellite is in the earth's shadow,  

DLR